When you browse on this site, cookies collect data to enhance your experience and personalize the content and advertising you see.
Visit our Privacy Policy to learn more. By continuing to use the site, you agree to this use of cookies and data.
  • In Hungary
  • List of Countries
  • For 7 days
  • Water Temperature
  • Weather Map
  • News
  • Weather Widgets
  • user-avatar
    Login

    Hourly Weather Widzgowo

    Today, 16 September, Monday

    Time Temperature Precipitation Wind Pressure Humidity
    00:00 +16°C° 0 mm 6 mps 746 mmHg 58%
    01:00 +16°C° 0 mm 6 mps 746 mmHg 58%
    02:00 +15°C° 0 mm 5 mps 746 mmHg 59%
    03:00 +15°C° 0 mm 5 mps 746 mmHg 64%
    04:00 +14°C° 0 mm 5 mps 746 mmHg 70%
    05:00 +14°C° 0 mm 5 mps 746 mmHg 76%
    06:00 +13°C° 0 mm 6 mps 746 mmHg 73%
    07:00 +13°C° 0 mm 6 mps 746 mmHg 71%
    08:00 +12°C° 0 mm 7 mps 746 mmHg 68%
    09:00 +12°C° 0 mm 7 mps 746 mmHg 65%
    10:00 +12°C° 0 mm 7 mps 746 mmHg 63%
    11:00 +12°C° 0 mm 7 mps 746 mmHg 60%
    12:00 +14°C° 0 mm 7 mps 746 mmHg 60%
    13:00 +14°C° 0 mm 7 mps 746 mmHg 60%
    14:00 +14°C° 0 mm 7 mps 746 mmHg 59%
    15:00 +14°C° 0 mm 7 mps 746 mmHg 59%
    16:00 +14°C° 0 mm 7 mps 746 mmHg 59%
    17:00 +14°C° 0 mm 6 mps 746 mmHg 58%
    18:00 +13°C° 0 mm 6 mps 746 mmHg 61%
    19:00 +12°C° 0 mm 5 mps 746 mmHg 63%
    20:00 +12°C° 0 mm 5 mps 746 mmHg 65%
    21:00 +10°C° 0 mm 5 mps 746 mmHg 68%
    22:00 +9°C° 0 mm 5 mps 745 mmHg 71%
    23:00 +8°C° 0 mm 5 mps 745 mmHg 73%

    Tomorrow, 17 September, Tuesday

    Time Temperature Precipitation Wind Pressure Humidity
    00:00 +8°C° 0 mm 5 mps 745 mmHg 76%
    01:00 +7°C° 0 mm 5 mps 745 mmHg 79%
    02:00 +7°C° 0 mm 5 mps 745 mmHg 81%
    03:00 +6°C° 0 mm 5 mps 745 mmHg 83%
    04:00 +6°C° 0 mm 5 mps 745 mmHg 84%
    05:00 +6°C° 0 mm 5 mps 745 mmHg 85%
    06:00 +7°C° 0 mm 5 mps 745 mmHg 82%
    07:00 +8°C° 0 mm 6 mps 744 mmHg 80%
    08:00 +8°C° 0 mm 6 mps 744 mmHg 77%
    09:00 +9°C° 0.1 mm 6 mps 744 mmHg 74%
    10:00 +10°C° 0.1 mm 6 mps 744 mmHg 70%
    11:00 +11°C° 0.1 mm 7 mps 744 mmHg 67%
    12:00 +12°C° 0.3 mm 7 mps 743 mmHg 65%
    13:00 +12°C° 0.3 mm 7 mps 743 mmHg 62%
    14:00 +13°C° 0.3 mm 8 mps 742 mmHg 59%
    15:00 +12°C° 0.4 mm 7 mps 742 mmHg 63%
    16:00 +12°C° 0.4 mm 7 mps 741 mmHg 66%
    17:00 +11°C° 0.4 mm 6 mps 741 mmHg 69%
    18:00 +10°C° 0.9 mm 5 mps 741 mmHg 74%
    19:00 +8°C° 0.9 mm 5 mps 740 mmHg 79%
    20:00 +6°C° 0.9 mm 4 mps 740 mmHg 84%
    21:00 +6°C° 0 mm 4 mps 740 mmHg 86%
    22:00 +6°C° 0 mm 4 mps 740 mmHg 87%
    23:00 +6°C° 0 mm 5 mps 740 mmHg 89%

    Day after tomorrow, 18 September, Wednesday

    Time Temperature Precipitation Wind Pressure Humidity
    00:00 +6°C° 0 mm 5 mps 740 mmHg 88%
    01:00 +5°C° 0 mm 6 mps 740 mmHg 87%
    02:00 +5°C° 0 mm 6 mps 740 mmHg 86%
    03:00 +4°C° 0 mm 7 mps 740 mmHg 86%
    04:00 +4°C° 0 mm 7 mps 740 mmHg 87%
    05:00 +3°C° 0 mm 7 mps 740 mmHg 87%
    06:00 +4°C° 0.1 mm 8 mps 741 mmHg 85%
    07:00 +5°C° 0.1 mm 8 mps 742 mmHg 84%
    08:00 +6°C° 0.1 mm 8 mps 742 mmHg 82%
    09:00 +7°C° 0.2 mm 9 mps 743 mmHg 79%
    10:00 +8°C° 0.2 mm 9 mps 744 mmHg 76%
    11:00 +9°C° 0.2 mm 10 mps 744 mmHg 72%
    12:00 +10°C° 0.2 mm 9 mps 745 mmHg 68%
    13:00 +11°C° 0.2 mm 9 mps 745 mmHg 65%
    14:00 +12°C° 0.2 mm 9 mps 746 mmHg 61%
    15:00 +12°C° 0.1 mm 8 mps 746 mmHg 60%
    16:00 +12°C° 0.1 mm 8 mps 746 mmHg 60%
    17:00 +12°C° 0.1 mm 7 mps 746 mmHg 59%
    18:00 +10°C° 0.2 mm 6 mps 747 mmHg 68%
    19:00 +9°C° 0.2 mm 5 mps 747 mmHg 76%
    20:00 +7°C° 0.2 mm 4 mps 747 mmHg 85%
    21:00 +6°C° 0 mm 4 mps 748 mmHg 87%
    22:00 +6°C° 0 mm 4 mps 748 mmHg 89%
    23:00 +5°C° 0 mm 4 mps 748 mmHg 92%

    19 September, Thursday

    Time Temperature Precipitation Wind Pressure Humidity
    00:00 +5°C° 0 mm 4 mps 748 mmHg 92%
    01:00 +5°C° 0 mm 4 mps 749 mmHg 93%
    02:00 +4°C° 0 mm 4 mps 749 mmHg 93%
    03:00 +4°C° 0 mm 4 mps 749 mmHg 93%
    04:00 +4°C° 0 mm 4 mps 749 mmHg 94%
    05:00 +4°C° 0 mm 4 mps 749 mmHg 94%
    06:00 +5°C° 0 mm 4 mps 749 mmHg 92%
    07:00 +5°C° 0 mm 4 mps 750 mmHg 90%
    08:00 +6°C° 0 mm 4 mps 750 mmHg 88%
    09:00 +8°C° 0.1 mm 4 mps 750 mmHg 81%
    10:00 +10°C° 0.1 mm 4 mps 750 mmHg 74%
    11:00 +12°C° 0.1 mm 4 mps 751 mmHg 66%
    12:00 +13°C° 0.4 mm 4 mps 751 mmHg 64%
    13:00 +13°C° 0.4 mm 5 mps 751 mmHg 62%
    14:00 +13°C° 0.4 mm 5 mps 751 mmHg 59%
    15:00 +13°C° 0.6 mm 5 mps 751 mmHg 63%
    16:00 +12°C° 0.6 mm 5 mps 751 mmHg 67%
    17:00 +12°C° 0.6 mm 5 mps 751 mmHg 71%
    18:00 +10°C° 0.1 mm 4 mps 751 mmHg 75%
    19:00 +8°C° 0.1 mm 4 mps 752 mmHg 78%
    20:00 +6°C° 0.1 mm 4 mps 752 mmHg 82%
    21:00 +6°C° 0 mm 4 mps 753 mmHg 84%
    22:00 +5°C° 0 mm 4 mps 753 mmHg 86%
    23:00 +5°C° 0 mm 5 mps 754 mmHg 88%

    20 September, Friday

    Time Temperature Precipitation Wind Pressure Humidity
    00:00 +4°C° 0 mm 4 mps 754 mmHg 89%
    01:00 +4°C° 0 mm 4 mps 754 mmHg 90%
    02:00 +4°C° 0 mm 4 mps 754 mmHg 91%
    03:00 +3°C° 0 mm 4 mps 754 mmHg 92%
    04:00 +3°C° 0 mm 4 mps 754 mmHg 93%
    05:00 +2°C° 0 mm 3 mps 754 mmHg 94%
    06:00 +3°C° 0 mm 4 mps 754 mmHg 90%
    07:00 +4°C° 0 mm 4 mps 755 mmHg 85%
    08:00 +5°C° 0 mm 4 mps 755 mmHg 81%
    09:00 +7°C° 0 mm 5 mps 755 mmHg 74%
    10:00 +8°C° 0 mm 5 mps 755 mmHg 67%
    11:00 +10°C° 0 mm 6 mps 755 mmHg 60%
    12:00 +11°C° 0 mm 6 mps 755 mmHg 58%
    13:00 +11°C° 0 mm 6 mps 755 mmHg 55%
    14:00 +12°C° 0 mm 5 mps 755 mmHg 53%
    15:00 +12°C° 0.1 mm 5 mps 755 mmHg 55%
    16:00 +12°C° 0.1 mm 4 mps 755 mmHg 56%
    17:00 +12°C° 0.1 mm 4 mps 755 mmHg 58%
    18:00 +11°C° 0.1 mm 3 mps 755 mmHg 64%
    19:00 +9°C° 0.1 mm 3 mps 755 mmHg 70%
    20:00 +8°C° 0.1 mm 3 mps 755 mmHg 75%
    21:00 +8°C° 0 mm 2 mps 755 mmHg 75%
    22:00 +8°C° 0 mm 2 mps 755 mmHg 76%
    23:00 +8°C° 0 mm 1 mps 755 mmHg 76%

    21 September, Saturday

    Time Temperature Precipitation Wind Pressure Humidity
    00:00 +7°C° 0.1 mm 2 mps 755 mmHg 76%
    01:00 +7°C° 0.1 mm 2 mps 754 mmHg 77%
    02:00 +7°C° 0.1 mm 2 mps 754 mmHg 78%
    03:00 +7°C° 0.7 mm 3 mps 754 mmHg 83%
    04:00 +7°C° 0.7 mm 3 mps 753 mmHg 87%
    05:00 +6°C° 0.7 mm 4 mps 753 mmHg 91%
    06:00 +7°C° 0 mm 4 mps 753 mmHg 92%
    07:00 +9°C° 0 mm 3 mps 753 mmHg 92%
    08:00 +10°C° 0 mm 3 mps 753 mmHg 93%
    09:00 +11°C° 0 mm 3 mps 753 mmHg 89%
    10:00 +12°C° 0 mm 2 mps 754 mmHg 86%
    11:00 +12°C° 0 mm 2 mps 754 mmHg 83%
    12:00 +14°C° 0 mm 2 mps 754 mmHg 78%
    13:00 +15°C° 0 mm 2 mps 754 mmHg 73%
    14:00 +16°C° 0 mm 2 mps 754 mmHg 68%
    15:00 +15°C° 0.1 mm 2 mps 754 mmHg 69%
    16:00 +15°C° 0.1 mm 2 mps 754 mmHg 70%
    17:00 +15°C° 0.1 mm 2 mps 754 mmHg 71%
    18:00 +14°C° 0 mm 2 mps 754 mmHg 76%
    19:00 +12°C° 0 mm 1 mps 755 mmHg 80%
    20:00 +11°C° 0 mm 1 mps 755 mmHg 85%
    21:00 +11°C° 0 mm 1 mps 755 mmHg 85%
    22:00 +9°C° 0 mm 0 mps 755 mmHg 86%
    23:00 +9°C° 0 mm 0 mps 755 mmHg 87%
    Show more